Back to catalog

STARLINK-32917

AliveCommunicationsVLEO
NORAD 62921·PAYLOAD·🇺🇸 United States

Launched Feb 8, 2025 from Cape Canaveral Space Force Station

Loading…

Next Passes (next 24 hours)

TLE

FreshSource: CelesTrak SupGP

Epoch: Sep 14, 2026, 21:25 UTC

1 62921C 25027Q   26257.89284722 -.00052303  00000+0 -18947-2 0  2572
2 62921  43.0019 140.4106 0001314 270.7299 239.9788 15.27599929    15

Track STARLINK-32917 in real time with AllMySat

Download on the App Store